Olathe, KS

4:40 PM CDT on August 23, 2017 (GMT -0500)
Johnson County Executive

Weather History for KOJC - April, 2012

Change the Weather History Date:

Monday, April 30, 2012

  Actual Average Record
Temperature  
Mean Temperature 62 °F 60 °F  
Max Temperature 69 °F 70 °F 88 °F (1959)
Min Temperature 55 °F 50 °F 32 °F (1960)
Degree Days  
Heating Degree Days 3 6  
Month to date heating degree days 184 314  
Since 1 July heating degree days 3789 4831  
Cooling Degree Days 0 1  
Month to date cooling degree days 40 17  
Year to date cooling degree days 82 18  
Growing Degree Days 12 (Base 50)    
Moisture  
Dew Point 55 °F    
Average Humidity 80    
Maximum Humidity 93    
Minimum Humidity 66    
Precipitation  
Precipitation T in 0.20 in 1.58 in (1954)
Month to date precipitation 1.55 3.99  
Year to date precipitation 6.32 9.31  
Sea Level Pressure  
Sea Level Pressure 29.95 in    
Wind  
Wind Speed 5 mph (NNE)    
Max Wind Speed 10 mph    
Max Gust Speed 24 mph    
Visibility 7 miles    
Events      
T = Trace of Precipitation, MM = Missing Value Source: NWS Daily Summary

Daily Weather History Graph

Daily Weather History Graph

Search for Another Location

Airport or City:

Trip Planner

Search our weather history database for the weather conditions in past years. The results will help you decide how hot, cold, wet, or windy it might be!

Date:

Astronomy

Apr. 30, 2012 Rise Set
Actual Time 6:21 AM CDT 8:10 PM CDT
Civil Twilight 5:53 AM CDT 8:39 PM CDT
Nautical Twilight 5:18 AM CDT 9:14 PM CDT
Astronomical Twilight 4:41 AM CDT 9:52 PM CDT
Moon 2:12 PM CDT (4/30) 2:43 AM CDT (4/30)
Length of Visible Light 14h 46m
Length of Day
13h 49m
Waxing Gibbous, 64% of the Moon is Illuminated
Apr 30
Waxing Gibbous
May 5
Full
May 12
Last Quarter
May 20
New
May 28
First Quarter

Hourly Weather History & Observations

Time (CDT) Temp. Dew Point Humidity Pressure Visibility Wind Dir Wind Speed Gust Speed Precip Events Conditions
12:39 AM 55.4 °F 53.6 °F 94% 29.96 in 2.5 mi NE 5.8 mph - N/A   Overcast
12:50 AM 55.4 °F 53.6 °F 94% 29.98 in 3.0 mi NNE 6.9 mph - N/A   Overcast
12:53 AM 55.9 °F 54.0 °F 93% 29.98 in 4.0 mi North 6.9 mph - N/A   Overcast
1:53 AM 55.0 °F 54.0 °F 96% 29.95 in 4.0 mi NE 5.8 mph - N/A   Overcast
2:42 AM 55.4 °F 53.6 °F 94% 29.95 in 5.0 mi North 5.8 mph - N/A   Overcast
2:53 AM 55.0 °F 53.1 °F 93% 29.94 in 6.0 mi North 4.6 mph - N/A   Overcast
3:53 AM 55.9 °F 54.0 °F 93% 29.95 in 5.0 mi North 4.6 mph - N/A   Overcast
4:43 AM 55.4 °F 53.6 °F 94% 29.94 in 6.0 mi NE 3.5 mph - N/A   Overcast
4:53 AM 55.9 °F 54.0 °F 93% 29.93 in 6.0 mi NE 3.5 mph - N/A   Overcast
5:12 AM 55.4 °F 53.6 °F 94% 29.96 in 7.0 mi Calm Calm - N/A   Overcast
5:53 AM 55.9 °F 54.0 °F 93% 29.95 in 7.0 mi NW 3.5 mph - N/A   Overcast
6:53 AM 55.0 °F 53.1 °F 93% 29.94 in 2.5 mi North 5.8 mph - N/A   Overcast
7:04 AM 55.4 °F 53.6 °F 94% 29.96 in 2.5 mi North 9.2 mph - N/A   Overcast
7:53 AM 55.9 °F 53.1 °F 90% 29.97 in 2.5 mi North 4.6 mph - N/A   Overcast
8:00 AM 55.4 °F 53.6 °F 94% 29.99 in 3.0 mi NNW 4.6 mph - N/A   Overcast
8:53 AM 55.9 °F 53.1 °F 90% 29.98 in 4.0 mi NNW 5.8 mph - N/A   Overcast
9:33 AM 59.0 °F 55.4 °F 88% 29.98 in 8.0 mi North 4.6 mph - N/A   Overcast
9:53 AM 59.0 °F 54.0 °F 83% 29.98 in 8.0 mi Variable 6.9 mph - N/A   Overcast
10:53 AM 59.0 °F 55.0 °F 87% 30.00 in 7.0 mi North 6.9 mph - N/A   Overcast
11:53 AM 61.0 °F 55.0 °F 81% 30.01 in 9.0 mi Calm Calm - N/A   Overcast
12:41 PM 62.6 °F 55.4 °F 77% 30.01 in 9.0 mi Calm Calm - N/A   Overcast
12:53 PM 61.0 °F 55.9 °F 83% 30.00 in 9.0 mi Calm Calm - N/A   Overcast
1:53 PM 63.0 °F 57.0 °F 81% 29.99 in 9.0 mi Calm Calm - N/A   Overcast
2:43 PM 64.4 °F 57.2 °F 77% 29.99 in 10.0 mi Calm Calm - N/A   Overcast
2:53 PM 64.0 °F 57.0 °F 78% 29.97 in 9.0 mi Variable 3.5 mph - N/A   Overcast
3:53 PM 64.9 °F 57.9 °F 78% 29.96 in 10.0 mi South 4.6 mph - N/A   Overcast
4:53 PM 66.9 °F 57.0 °F 70% 29.94 in 10.0 mi WSW 4.6 mph - N/A   Overcast
5:53 PM 69.1 °F 57.9 °F 68% 29.92 in 10.0 mi Calm Calm - N/A   Scattered Clouds
6:42 PM 66.2 °F 57.2 °F 73% 29.93 in 10.0 mi Calm Calm - N/A   Mostly Cloudy
6:53 PM 66.9 °F 57.9 °F 73% 29.91 in 10.0 mi SSE 4.6 mph - N/A   Overcast
7:25 PM 66.2 °F 59.0 °F 78% 29.91 in 10.0 mi ESE 8.1 mph - N/A   Partly Cloudy
7:53 PM 64.9 °F 59.0 °F 81% 29.90 in 10.0 mi ESE 5.8 mph - N/A   Clear
8:53 PM 62.1 °F 57.9 °F 86% 29.90 in 10.0 mi ESE 4.6 mph - N/A   Clear
9:53 PM 62.1 °F 59.0 °F 90% 29.88 in 8.0 mi ESE 8.1 mph - N/A   Clear
10:53 PM 62.1 °F 59.0 °F 90% 29.87 in 9.0 mi ESE 8.1 mph - N/A   Partly Cloudy